Regional Weather Roundup
Issued by NWS

Home | Current Version | Previous Version | Graphics & Text | Print | Product List | Glossary On
Versions: 1 2 3 4 5 6 7 8 9 10 11 12 13 14 15 16 17 18 19 20 21 22 23 24 25 26 27 28 29 30 31 32 33 34 35 36 37 38 39 40 41 42 43 44 45 46 47 48 49 50
000
ASUS43 KLMK 261102
RWRKY
KENTUCKY REGIONAL WEATHER ROUNDUP
NATIONAL WEATHER SERVICE LOUISVILLE KY
700 AM EDT THU MAR 26 2015

NOTE "FAIR" INDICATES FEW OR NO CLOUDS BELOW 12,000 FEET
WITH NO SIGNIFICANT WEATHER AND/OR OBSTRUCTIONS TO VISIBILITY.

KYZ001>023-026-027-061>063-070>075-261200-
WESTERN AND SOUTH CENTRAL KENTUCKY

CITY           SKY/WX    TMP DP  RH WIND       PRES   REMARKS
PADUCAH        LGT RAIN  50  48  93 N7        29.88R
HENDERSON      CLOUDY    48  45  87 NW7       29.88S
OWENSBORO      LGT RAIN  48  47  97 N8        29.86F FOG
HOPKINSVILLE   CLOUDY    53  51  95 W3        29.85F FOG
BOWLING GREEN  CLOUDY    60  55  83 SW8       29.85R
GLASGOW        NOT AVBL
$$

KYZ024-025-028>034-038-045-046-053-261200-
NORTH CENTRAL KENTUCKY

CITY           SKY/WX    TMP DP  RH WIND       PRES   REMARKS
LOUISVILLE/SDF LGT RAIN  48  46  93 NW12      29.86R FOG
LOUISVILLE/LOU RAIN      48  46  93 NW8       29.86R FOG
FORT KNOX      LGT RAIN  50  49  95 N7        29.82S
$$

KYZ035>037-039>044-047>052-055>060-089>105-261200-
NORTHEAST KENTUCKY

CITY           SKY/WX    TMP DP  RH WIND       PRES   REMARKS
LEXINGTON      RAIN      55  53  93 NW8       29.83R FOG
COVINGTON      LGT RAIN  46  46 100 NE9       29.83F FOG
FRANKFORT      LGT RAIN  50  48  93 NE5       29.81F FOG
$$

KYZ054-064>069-076>088-106>120-261200-
SOUTHEAST KENTUCKY

CITY           SKY/WX    TMP DP  RH WIND       PRES   REMARKS
JACKSON        CLOUDY    60  49  66 VRB6      29.85F
LONDON         MOCLDY    59  49  69 SE5       29.86F
SOMERSET       NOT AVBL
MIDDLESBORO    CLOUDY    63  55  75 SW7       29.92S
MONTICELLO     MOSUNNY   64  55  72 S12       29.88S
$$




USA.gov is the U.S. government's official web portal to all federal, state and local government web resources and services.